TimeEST,TemperatureF,Dew PointF,Humidity,Sea Level PressureIn,VisibilityMPH,Wind Direction,Wind SpeedMPH,Gust SpeedMPH,PrecipitationIn,Events,Conditions,WindDirDegrees,DateUTC
1:51 AM,45.0,43.0,93,30.00,2.5,North,-9999.0,-,N/A,,Overcast,0,2013-01-14 06:51:00
1:59 AM,46.4,44.6,93,29.98,6.0,North,-9999.0,-,N/A,,Overcast,0,2013-01-14 06:59:00
2:40 AM,44.6,42.8,93,29.97,2.5,North,-9999.0,-,N/A,,Overcast,0,2013-01-14 07:40:00
2:51 AM,41.9,41.0,97,29.98,0.2,North,-9999.0,-,N/A,Fog,Fog,0,2013-01-14 07:51:00
2:59 AM,42.8,39.2,87,29.97,0.8,North,-9999.0,-,N/A,,Mostly Cloudy,0,2013-01-14 07:59:00
3:09 AM,39.2,39.2,100,29.96,0.5,North,-9999.0,-,N/A,Fog,Fog,0,2013-01-14 08:09:00
3:19 AM,41.0,39.2,93,29.96,0.2,North,-9999.0,-,N/A,Fog,Fog,0,2013-01-14 08:19:00
3:41 AM,44.6,42.8,93,29.94,0.2,North,-9999.0,-,N/A,Fog,Fog,0,2013-01-14 08:41:00
3:51 AM,43.0,41.9,96,29.95,0.2,North,-9999.0,-,N/A,Fog,Fog,0,2013-01-14 08:51:00
4:25 AM,44.6,42.8,93,29.94,0.2,North,-9999.0,-,N/A,Fog,Fog,0,2013-01-14 09:25:00
4:32 AM,42.8,42.8,100,29.93,0.2,North,-9999.0,-,N/A,Fog,Fog,0,2013-01-14 09:32:00
4:51 AM,45.0,43.9,96,29.95,1.2,North,-9999.0,-,N/A,,Mostly Cloudy,0,2013-01-14 09:51:00
4:57 AM,44.6,44.6,100,29.95,1.5,North,-9999.0,-,N/A,,Mostly Cloudy,0,2013-01-14 09:57:00
5:03 AM,46.4,44.6,93,29.95,3.0,North,-9999.0,-,N/A,,Mostly Cloudy,0,2013-01-14 10:03:00
5:17 AM,46.4,46.4,100,29.91,10.0,North,-9999.0,-,N/A,,Mostly Cloudy,0,2013-01-14 10:17:00
5:43 AM,44.6,44.6,100,29.90,1.2,North,-9999.0,-,N/A,,Mostly Cloudy,0,2013-01-14 10:43:00
5:51 AM,43.9,43.9,100,29.94,0.5,North,-9999.0,-,N/A,Fog,Fog,0,2013-01-14 10:51:00
5:55 AM,46.4,44.6,93,29.92,1.0,North,-9999.0,-,N/A,,Mostly Cloudy,0,2013-01-14 10:55:00
5:57 AM,46.4,44.6,93,29.91,1.8,North,-9999.0,-,N/A,,Mostly Cloudy,0,2013-01-14 10:57:00
5:59 AM,46.4,44.6,93,29.91,5.0,North,-9999.0,-,N/A,,Mostly Cloudy,0,2013-01-14 10:59:00
6:51 AM,45.9,45.0,97,29.88,10.0,North,-9999.0,-,N/A,,Mostly Cloudy,0,2013-01-14 11:51:00
7:12 AM,44.6,42.8,93,29.91,2.0,North,-9999.0,-,N/A,,Overcast,0,2013-01-14 12:12:00
7:15 AM,44.6,42.8,93,29.90,1.2,North,-9999.0,-,N/A,,Mostly Cloudy,0,2013-01-14 12:15:00
7:23 AM,42.8,42.8,100,29.92,10.0,North,-9999.0,-,N/A,,Mostly Cloudy,0,2013-01-14 12:23:00
7:51 AM,41.0,39.9,96,29.94,10.0,North,-9999.0,-,N/A,,Partly Cloudy,0,2013-01-14 12:51:00
8:51 AM,39.9,38.8,96,29.98,10.0,North,-9999.0,-,N/A,,Clear,0,2013-01-14 13:51:00
9:35 AM,42.8,42.8,100,29.99,10.0,North,-9999.0,-,N/A,,Mostly Cloudy,0,2013-01-14 14:35:00
9:51 AM,43.9,43.0,97,30.01,10.0,Calm,Calm,-,N/A,,Overcast,0,2013-01-14 14:51:00
10:26 AM,44.6,44.6,100,29.99,10.0,North,-9999.0,-,N/A,,Partly Cloudy,0,2013-01-14 15:26:00
10:51 AM,50.9,46.9,86,29.99,10.0,Calm,Calm,-,N/A,,Clear,0,2013-01-14 15:51:00
11:51 AM,55.9,45.9,69,29.98,10.0,Variable,3.5,-,N/A,,Clear,0,2013-01-14 16:51:00
12:51 PM,59.9,38.8,46,29.99,10.0,WNW,12.7,23.0,N/A,,Clear,290,2013-01-14 17:51:00
1:51 PM,57.9,38.8,49,30.02,10.0,WNW,15.0,23.0,N/A,,Scattered Clouds,290,2013-01-14 18:51:00
2:51 PM,54.9,34.9,47,30.07,10.0,WNW,13.8,20.7,N/A,,Scattered Clouds,290,2013-01-14 19:51:00
3:51 PM,52.0,32.0,47,30.11,10.0,North,-9999.0,-,N/A,,Clear,0,2013-01-14 20:51:00
4:51 PM,46.9,27.1,46,30.14,10.0,North,-9999.0,-,N/A,,Clear,0,2013-01-14 21:51:00
5:51 PM,43.0,29.1,58,30.14,10.0,North,-9999.0,-,N/A,,Clear,0,2013-01-14 22:51:00
6:51 PM,39.9,28.0,63,30.16,10.0,WSW,3.5,-,N/A,,Clear,250,2013-01-14 23:51:00
7:51 PM,43.0,24.1,47,30.22,10.0,North,-9999.0,-,N/A,,Clear,0,2013-01-15 00:51:00
8:51 PM,41.0,26.1,55,30.23,10.0,North,-9999.0,-,N/A,,Clear,0,2013-01-15 01:51:00
9:51 PM,39.9,25.2,56,30.23,10.0,North,-9999.0,-,N/A,,Clear,0,2013-01-15 02:51:00
10:51 PM,38.8,25.2,58,30.26,10.0,North,-9999.0,-,N/A,,Clear,0,2013-01-15 03:51:00
11:51 PM,38.8,24.1,55,30.28,10.0,North,-9999.0,-,N/A,,Clear,0,2013-01-15 04:51:00